Location: Caltech
(34.1382°N, 118.1253°W)
Time: 22:34:06
(UTC-07:00)

Iridium 62 - Visible Passes

Search period start: 31 May 2016 00:00
Search period end: 10 June 2016 00:00
Orbit: 776 x 779 km, 86.4° (Epoch: 31 May)

Date Brightness Start Highest point End Pass type
(mag) Time Alt. Az. Time Alt. Az. Time Alt. Az.
31 May 6.4 20:54:26 10° NNE 20:59:17 38° E 21:03:12 15° SSE visible
31 May 8.1 22:36:00 10° NW 22:39:38 19° W 22:43:17 10° SW visible
01 Jun 7.2 20:21:47 10° NNE 20:25:34 20° E 20:29:21 10° SE visible
01 Jun 7.1 22:01:36 10° NNW 22:06:21 37° W 22:10:42 12° SSW visible
02 Jun 6.0 21:27:45 10° N 21:32:57 73° W 21:37:43 12° S visible
03 Jun 5.9 20:54:18 10° N 20:59:26 57° E 21:04:33 10° SSE visible
03 Jun 8.5 22:37:18 10° NW 22:39:33 13° W 22:41:48 10° WSW visible
04 Jun 7.8 22:02:08 10° NNW 22:06:20 25° W 22:10:31 10° SW visible
05 Jun 6.7 21:27:59 10° NNW 21:33:00 48° W 21:37:59 10° SSW visible
06 Jun 5.8 20:54:19 10° N 20:59:33 86° E 21:04:46 10° S visible
07 Jun 8.4 22:03:00 10° NW 22:06:15 17° W 22:09:31 10° WSW visible
08 Jun 7.5 21:28:24 10° NNW 21:33:00 32° W 21:37:35 10° SSW visible
09 Jun 6.3 20:54:27 10° N 20:59:37 64° W 21:04:45 10° S visible
